UAL3880 KMCO-KEWR

Flight info

Callsign UAL3880
Flight time 2h 3m
Altitude 35000
Route FATHE4 VIYAP Q87 ALWZZ OGRAE Q99 QUART PHLBO4
Aircraft A320/M-VGDW/C

Departure

Time 2026-05-04 23:59
Airport Orlando International Airport (KMCO)

Arrival

Time 2026-05-05 02:02
Airport Newark Liberty International Airport (KEWR)
Time Latitude Longitude Altitude Speed Heading
2026-05-04 23:41 28.42569 -81.31544 102 ft 0 kts 33°
2026-05-04 23:46 28.42562 -81.31550 100 ft 4 kts 33°
2026-05-04 23:47 28.42540 -81.31567 101 ft 4 kts 56°
2026-05-04 23:47 28.42536 -81.31587 101 ft 3 kts 104°
2026-05-04 23:47 28.42549 -81.31611 102 ft 4 kts 155°
2026-05-04 23:47 28.42572 -81.31619 102 ft 4 kts 167°
2026-05-04 23:48 28.42597 -81.31625 102 ft 2 kts 167°
2026-05-04 23:48 28.42598 -81.31625 102 ft 0 kts 167°
2026-05-04 23:49 28.42597 -81.31625 102 ft 0 kts 167°
2026-05-04 23:50 28.42589 -81.31623 102 ft 2 kts 167°
2026-05-04 23:50 28.42568 -81.31618 102 ft 4 kts 167°
2026-05-04 23:50 28.42536 -81.31610 102 ft 6 kts 167°
2026-05-04 23:50 28.42509 -81.31574 101 ft 7 kts 108°
2026-05-04 23:51 28.42513 -81.31509 101 ft 9 kts 77°
2026-05-04 23:51 28.42528 -81.31433 101 ft 7 kts 77°
2026-05-04 23:51 28.42511 -81.31379 100 ft 10 kts 135°
2026-05-04 23:51 28.42442 -81.31308 97 ft 15 kts 138°
2026-05-04 23:52 28.42379 -81.31281 98 ft 9 kts 179°
2026-05-04 23:52 28.42346 -81.31234 96 ft 10 kts 96°
2026-05-04 23:52 28.42335 -81.31145 94 ft 13 kts 100°
2026-05-04 23:52 28.42320 -81.31036 93 ft 15 kts 96°
2026-05-04 23:53 28.42320 -81.30907 93 ft 17 kts 86°
2026-05-04 23:53 28.42330 -81.30772 106 ft 12 kts 86°
2026-05-04 23:53 28.42337 -81.30669 106 ft 14 kts 85°
2026-05-04 23:53 28.42345 -81.30554 106 ft 15 kts 85°
2026-05-04 23:54 28.42352 -81.30444 100 ft 14 kts 84°
2026-05-04 23:54 28.42357 -81.30354 100 ft 11 kts 88°
2026-05-04 23:54 28.42359 -81.30258 101 ft 15 kts 89°
2026-05-04 23:54 28.42361 -81.30125 103 ft 19 kts 90°
2026-05-04 23:55 28.42361 -81.29963 103 ft 21 kts 89°
2026-05-04 23:55 28.42344 -81.29805 102 ft 15 kts 144°
2026-05-04 23:55 28.42150 -81.29791 102 ft 20 kts 179°
2026-05-04 23:56 28.41985 -81.29789 102 ft 27 kts 179°
2026-05-04 23:56 28.41853 -81.29788 102 ft 30 kts 179°
2026-05-04 23:56 28.41632 -81.29786 102 ft 32 kts 179°
2026-05-04 23:56 28.41433 -81.29784 101 ft 27 kts 180°
2026-05-04 23:57 28.41173 -81.29781 101 ft 29 kts 179°
2026-05-04 23:57 28.41034 -81.29780 100 ft 30 kts 180°
2026-05-04 23:57 28.40856 -81.29777 102 ft 13 kts 166°
2026-05-04 23:57 28.40821 -81.29680 98 ft 12 kts 87°
2026-05-04 23:58 28.40824 -81.29608 99 ft 14 kts 88°
2026-05-04 23:58 28.40848 -81.29561 97 ft 7 kts 17°
2026-05-04 23:58 28.40912 -81.29560 97 ft 15 kts 359°
2026-05-04 23:58 28.41261 -81.29562 102 ft 83 kts 360°
2026-05-04 23:59 28.42019 -81.29571 103 ft 136 kts 360°
2026-05-04 23:59 28.43112 -81.29579 128 ft 176 kts 360°
2026-05-04 23:59 28.44293 -81.29590 828 ft 165 kts
2026-05-04 23:59 28.45379 -81.29274 1404 ft 160 kts 33°
2026-05-05 00:00 28.46350 -81.28648 1925 ft 165 kts 34°
2026-05-05 00:00 28.47037 -81.28197 2073 ft 179 kts 33°
2026-05-05 00:00 28.48603 -81.27170 2327 ft 211 kts 33°
2026-05-05 00:00 28.49938 -81.26292 2622 ft 234 kts 32°
2026-05-05 00:01 28.51469 -81.25425 3079 ft 255 kts 18°
2026-05-05 00:01 28.53260 -81.25174 3848 ft 263 kts
2026-05-05 00:01 28.55106 -81.25073 4670 ft 268 kts
2026-05-05 00:01 28.56993 -81.25107 5484 ft 273 kts 360°
2026-05-05 00:02 28.58907 -81.25243 6273 ft 278 kts 354°
2026-05-05 00:02 28.60804 -81.25534 7035 ft 282 kts 352°
2026-05-05 00:02 28.62791 -81.25866 7826 ft 286 kts 352°
2026-05-05 00:02 28.64752 -81.26174 8562 ft 289 kts 352°
2026-05-05 00:03 28.66761 -81.26465 9258 ft 294 kts 352°
2026-05-05 00:03 28.68805 -81.26749 9936 ft 298 kts 352°
2026-05-05 00:03 28.70907 -81.27035 10331 ft 314 kts 352°
2026-05-05 00:03 28.73155 -81.27341 10472 ft 336 kts 352°
2026-05-05 00:04 28.75555 -81.27665 10601 ft 358 kts 352°
2026-05-05 00:04 28.78093 -81.28009 10795 ft 375 kts 352°
2026-05-05 00:04 28.80710 -81.28364 11282 ft 382 kts 352°
2026-05-05 00:04 28.83355 -81.28727 11896 ft 385 kts 352°
2026-05-05 00:05 28.86026 -81.29061 12533 ft 388 kts 353°
2026-05-05 00:05 28.88727 -81.29324 13126 ft 391 kts 354°
2026-05-05 00:05 28.91448 -81.29544 13704 ft 394 kts 354°
2026-05-05 00:05 28.94190 -81.29745 14282 ft 397 kts 354°
2026-05-05 00:06 28.96961 -81.29951 14840 ft 400 kts 353°
2026-05-05 00:06 28.99751 -81.30170 15405 ft 402 kts 353°
2026-05-05 00:06 29.02533 -81.30430 15948 ft 405 kts 352°
2026-05-05 00:06 29.05352 -81.30736 16491 ft 408 kts 351°
2026-05-05 00:07 29.08187 -81.31068 17036 ft 411 kts 351°
2026-05-05 00:07 29.11000 -81.31404 17560 ft 414 kts 351°
2026-05-05 00:07 29.13887 -81.31681 18074 ft 417 kts 352°
2026-05-05 00:07 29.16795 -81.31881 18577 ft 421 kts 353°
2026-05-05 00:08 29.19730 -81.32035 19060 ft 424 kts 354°
2026-05-05 00:08 29.22689 -81.32172 19545 ft 427 kts 354°
2026-05-05 00:08 29.25669 -81.32311 20001 ft 430 kts 353°
2026-05-05 00:08 29.28663 -81.32465 20450 ft 432 kts 353°
2026-05-05 00:09 29.31677 -81.32635 20863 ft 434 kts 353°
2026-05-05 00:09 29.34697 -81.32818 21259 ft 436 kts 352°
2026-05-05 00:09 29.37740 -81.33010 21644 ft 439 kts 352°
2026-05-05 00:09 29.40796 -81.33202 22007 ft 441 kts 352°
2026-05-05 00:10 29.43875 -81.33391 22369 ft 443 kts 352°
2026-05-05 00:10 29.46961 -81.33577 22712 ft 445 kts 352°
2026-05-05 00:10 29.50063 -81.33765 23043 ft 447 kts 352°
2026-05-05 00:10 29.53177 -81.33955 23361 ft 449 kts 352°
2026-05-05 00:11 29.56268 -81.34144 23674 ft 451 kts 352°
2026-05-05 00:11 29.59408 -81.34333 23996 ft 453 kts 352°
2026-05-05 00:11 29.62560 -81.34522 24294 ft 455 kts 352°
2026-05-05 00:11 29.65723 -81.34713 24609 ft 456 kts 352°
2026-05-05 00:12 29.68900 -81.34899 24979 ft 456 kts 352°
2026-05-05 00:12 29.72067 -81.35076 25431 ft 455 kts 352°
2026-05-05 00:12 29.75220 -81.35250 25862 ft 454 kts 351°
2026-05-05 00:12 29.78373 -81.35426 26301 ft 452 kts 351°
2026-05-05 00:13 29.81513 -81.35604 26725 ft 451 kts 351°
2026-05-05 00:13 29.84647 -81.35786 27142 ft 450 kts 351°
2026-05-05 00:13 29.87772 -81.35963 27567 ft 449 kts 350°
2026-05-05 00:13 29.90891 -81.36139 27993 ft 448 kts 350°
2026-05-05 00:14 29.93963 -81.36312 28422 ft 447 kts 350°
2026-05-05 00:14 29.97065 -81.36486 28849 ft 446 kts 350°
2026-05-05 00:14 30.00154 -81.36662 29271 ft 444 kts 349°
2026-05-05 00:14 30.03241 -81.36845 29692 ft 443 kts 349°
2026-05-05 00:15 30.06316 -81.37027 30118 ft 441 kts 349°
2026-05-05 00:15 30.09383 -81.37206 30517 ft 440 kts 349°
2026-05-05 00:15 30.12440 -81.37384 30911 ft 439 kts 349°
2026-05-05 00:15 30.15490 -81.37560 31294 ft 438 kts 349°
2026-05-05 00:16 30.18532 -81.37736 31672 ft 437 kts 349°
2026-05-05 00:16 30.21529 -81.37910 32034 ft 437 kts 349°
2026-05-05 00:16 30.24564 -81.38087 32382 ft 437 kts 349°
2026-05-05 00:16 30.27599 -81.38265 32740 ft 436 kts 349°
2026-05-05 00:17 30.30627 -81.38440 33104 ft 435 kts 349°
2026-05-05 00:17 30.33652 -81.38614 33465 ft 435 kts 349°
2026-05-05 00:17 30.36675 -81.38790 33819 ft 434 kts 349°
2026-05-05 00:17 30.39693 -81.38966 34156 ft 433 kts 349°
2026-05-05 00:18 30.42661 -81.39139 34474 ft 433 kts 349°
2026-05-05 00:18 30.45673 -81.39312 34746 ft 433 kts 349°
2026-05-05 00:18 30.48680 -81.39482 35013 ft 433 kts 349°
2026-05-05 00:19 30.54766 -81.39811 35102 ft 444 kts 349°
2026-05-05 00:19 30.61025 -81.40141 35110 ft 456 kts 349°
2026-05-05 00:20 30.67424 -81.40472 35111 ft 464 kts 349°
2026-05-05 00:20 30.73911 -81.40811 35107 ft 468 kts 349°
2026-05-05 00:21 30.80423 -81.41151 35110 ft 469 kts 349°
2026-05-05 00:21 30.86896 -81.41497 35110 ft 468 kts 349°
2026-05-05 00:22 30.93400 -81.41844 35111 ft 468 kts 350°
2026-05-05 00:22 30.99913 -81.42182 35114 ft 469 kts 350°
2026-05-05 00:23 31.06440 -81.42533 35115 ft 469 kts 349°
2026-05-05 00:23 31.12953 -81.42889 35114 ft 469 kts 350°
2026-05-05 00:24 31.19480 -81.43239 35115 ft 469 kts 349°
2026-05-05 00:24 31.26019 -81.42671 35109 ft 486 kts
2026-05-05 00:24 31.29255 -81.41378 35107 ft 496 kts 18°
2026-05-05 00:25 31.32390 -81.39669 35109 ft 498 kts 19°
2026-05-05 00:25 31.38677 -81.36251 35110 ft 498 kts 18°
2026-05-05 00:26 31.44977 -81.32856 35111 ft 498 kts 18°
2026-05-05 00:26 31.51275 -81.29438 35115 ft 499 kts 18°
2026-05-05 00:27 31.57526 -81.26024 35116 ft 499 kts 18°
2026-05-05 00:27 31.63829 -81.22601 35110 ft 499 kts 18°
2026-05-05 00:28 31.70120 -81.19159 35104 ft 499 kts 18°
2026-05-05 00:28 31.76412 -81.15706 35102 ft 499 kts 18°
2026-05-05 00:29 31.82712 -81.12251 35099 ft 500 kts 18°
2026-05-05 00:29 31.89021 -81.08788 35098 ft 501 kts 19°
2026-05-05 00:30 31.95333 -81.05326 35097 ft 500 kts 18°
2026-05-05 00:30 32.01637 -81.01853 35092 ft 500 kts 19°
2026-05-05 00:31 32.07881 -80.98376 35099 ft 500 kts 19°
2026-05-05 00:31 32.14158 -80.94854 35100 ft 500 kts 19°
2026-05-05 00:32 32.20439 -80.91324 35106 ft 500 kts 19°
2026-05-05 00:32 32.26715 -80.87800 35115 ft 500 kts 19°
2026-05-05 00:33 32.33000 -80.84264 35119 ft 501 kts 19°
2026-05-05 00:33 32.39291 -80.80718 35128 ft 501 kts 19°
2026-05-05 00:34 32.45582 -80.77174 35126 ft 500 kts 19°
2026-05-05 00:34 32.51873 -80.73624 35124 ft 500 kts 19°
2026-05-05 00:35 32.58110 -80.70091 35118 ft 500 kts 19°
2026-05-05 00:35 32.64390 -80.66532 35118 ft 500 kts 19°
2026-05-05 00:36 32.70662 -80.62967 35123 ft 500 kts 19°
2026-05-05 00:36 32.76916 -80.59337 35128 ft 500 kts 20°
2026-05-05 00:37 32.83137 -80.55608 35136 ft 501 kts 21°
2026-05-05 00:37 32.89357 -80.51865 35144 ft 501 kts 21°
2026-05-05 00:38 32.95586 -80.48155 35137 ft 500 kts 21°
2026-05-05 00:38 33.01803 -80.44451 35134 ft 499 kts 21°
2026-05-05 00:39 33.08007 -80.40752 35131 ft 499 kts 21°
2026-05-05 00:39 33.14161 -80.37071 35127 ft 498 kts 21°
2026-05-05 00:40 33.20352 -80.33357 35120 ft 497 kts 21°
2026-05-05 00:40 33.26524 -80.29647 35119 ft 496 kts 21°
2026-05-05 00:41 33.32684 -80.25943 35116 ft 495 kts 21°
2026-05-05 00:41 33.38837 -80.22247 35123 ft 495 kts 21°
2026-05-05 00:42 33.44986 -80.18543 35120 ft 494 kts 21°
2026-05-05 00:42 33.51126 -80.14834 35119 ft 493 kts 21°
2026-05-05 00:43 33.57206 -80.11162 35117 ft 492 kts 21°
2026-05-05 00:43 33.63319 -80.07451 35116 ft 492 kts 21°
2026-05-05 00:44 33.69422 -80.03744 35118 ft 491 kts 21°
2026-05-05 00:44 33.75523 -80.00037 35117 ft 491 kts 21°
2026-05-05 00:45 33.81616 -79.96323 35115 ft 490 kts 21°
2026-05-05 00:45 33.87699 -79.92602 35114 ft 490 kts 21°
2026-05-05 00:46 33.93780 -79.88899 35112 ft 489 kts 21°
2026-05-05 00:46 33.99816 -79.85218 35106 ft 489 kts 21°
2026-05-05 00:47 34.05887 -79.81483 35101 ft 490 kts 21°
2026-05-05 00:47 34.11958 -79.77755 35086 ft 490 kts 21°
2026-05-05 00:48 34.18034 -79.74028 35086 ft 490 kts 21°
2026-05-05 00:48 34.24097 -79.70290 35081 ft 489 kts 21°
2026-05-05 00:49 34.30164 -79.66531 35079 ft 490 kts 21°
2026-05-05 00:49 34.36197 -79.62812 35080 ft 489 kts 21°
2026-05-05 00:50 34.42265 -79.59061 35085 ft 490 kts 22°
2026-05-05 00:50 34.48335 -79.55292 35084 ft 490 kts 21°
2026-05-05 00:51 34.54402 -79.51521 35083 ft 490 kts 21°
2026-05-05 00:51 34.60426 -79.47633 35076 ft 491 kts 24°
2026-05-05 00:52 34.66393 -79.43563 35073 ft 492 kts 24°
2026-05-05 00:52 34.72626 -79.40494 35068 ft 477 kts
2026-05-05 00:53 34.79079 -79.39098 35058 ft 474 kts
2026-05-05 00:53 34.85579 -79.37729 35055 ft 474 kts
2026-05-05 00:54 34.92090 -79.36344 35051 ft 474 kts
2026-05-05 00:54 34.98591 -79.34942 35047 ft 475 kts
2026-05-05 00:55 35.05104 -79.33544 35043 ft 475 kts
2026-05-05 00:55 35.11614 -79.32160 35044 ft 475 kts
2026-05-05 00:56 35.17028 -79.30993 35050 ft 476 kts
2026-05-05 00:56 35.24604 -79.29363 35057 ft 476 kts
2026-05-05 00:57 35.31127 -79.27962 35065 ft 476 kts
2026-05-05 00:57 35.36544 -79.26796 35062 ft 475 kts
2026-05-05 00:58 35.43059 -79.25387 35066 ft 475 kts
2026-05-05 00:58 35.49579 -79.23967 35066 ft 476 kts
2026-05-05 00:59 35.56096 -79.22549 35061 ft 475 kts
2026-05-05 00:59 35.62608 -79.21139 35063 ft 475 kts
2026-05-05 01:00 35.69087 -79.19742 35062 ft 476 kts
2026-05-05 01:00 35.75472 -79.17383 35057 ft 489 kts 21°
2026-05-05 01:01 35.81231 -79.12779 35058 ft 496 kts 30°
2026-05-05 01:01 35.86866 -79.07855 35056 ft 496 kts 31°
2026-05-05 01:02 35.92504 -79.02936 35053 ft 497 kts 30°
2026-05-05 01:02 35.98157 -78.98008 35053 ft 497 kts 31°
2026-05-05 01:03 36.03767 -78.93107 35056 ft 497 kts 31°
2026-05-05 01:03 36.09410 -78.88165 35063 ft 496 kts 31°
2026-05-05 01:04 36.15037 -78.83223 35061 ft 496 kts 31°
2026-05-05 01:04 36.23481 -78.75794 35060 ft 496 kts 31°
2026-05-05 01:05 36.29060 -78.70864 35054 ft 496 kts 31°
2026-05-05 01:05 36.34671 -78.65902 35048 ft 495 kts 31°
2026-05-05 01:06 36.40280 -78.60926 35042 ft 495 kts 31°
2026-05-05 01:06 36.45897 -78.55973 35040 ft 495 kts 30°
2026-05-05 01:07 36.51673 -78.51349 35033 ft 493 kts 27°
2026-05-05 01:07 36.57531 -78.46934 35027 ft 492 kts 27°
2026-05-05 01:08 36.63362 -78.42453 35027 ft 493 kts 28°
2026-05-05 01:08 36.69122 -78.37912 35026 ft 493 kts 28°
2026-05-05 01:09 36.74901 -78.33323 35028 ft 492 kts 28°
2026-05-05 01:09 36.80674 -78.28764 35030 ft 491 kts 28°
2026-05-05 01:10 36.86444 -78.24198 35030 ft 490 kts 28°
2026-05-05 01:10 36.92210 -78.19639 35028 ft 489 kts 28°
2026-05-05 01:11 36.97960 -78.15092 35025 ft 489 kts 28°
2026-05-05 01:11 37.03691 -78.10523 35024 ft 488 kts 28°
2026-05-05 01:12 37.09362 -78.05984 35021 ft 487 kts 28°
2026-05-05 01:12 37.15069 -78.01423 35017 ft 486 kts 28°
2026-05-05 01:13 37.20769 -77.96870 35016 ft 485 kts 28°
2026-05-05 01:13 37.26458 -77.92325 35010 ft 485 kts 28°
2026-05-05 01:14 37.32134 -77.87761 35009 ft 484 kts 28°
2026-05-05 01:14 37.37811 -77.83189 35016 ft 484 kts 28°
2026-05-05 01:15 37.43445 -77.78667 35015 ft 483 kts 28°
2026-05-05 01:15 37.49107 -77.74109 35016 ft 483 kts 29°
2026-05-05 01:16 37.54759 -77.69536 35011 ft 482 kts 29°
2026-05-05 01:16 37.60405 -77.64977 35003 ft 481 kts 29°
2026-05-05 01:17 37.65998 -77.60459 35000 ft 480 kts 29°
2026-05-05 01:17 37.71616 -77.55913 35004 ft 479 kts 29°
2026-05-05 01:18 37.77232 -77.51366 35008 ft 479 kts 29°
2026-05-05 01:18 37.82846 -77.46801 34995 ft 479 kts 29°
2026-05-05 01:19 37.88429 -77.42269 34999 ft 479 kts 29°
2026-05-05 01:19 37.94047 -77.37701 34986 ft 479 kts 29°
2026-05-05 01:20 37.99652 -77.33112 34979 ft 480 kts 29°
2026-05-05 01:20 38.05252 -77.28508 34979 ft 479 kts 29°
2026-05-05 01:21 38.10850 -77.23918 34979 ft 478 kts 29°
2026-05-05 01:21 38.16407 -77.19370 34969 ft 478 kts 29°
2026-05-05 01:22 38.22002 -77.14783 34968 ft 478 kts 29°
2026-05-05 01:22 38.27584 -77.10197 34975 ft 477 kts 29°
2026-05-05 01:23 38.33074 -77.05403 34973 ft 479 kts 33°
2026-05-05 01:23 38.38362 -77.00214 34969 ft 480 kts 34°
2026-05-05 01:24 38.43609 -76.94962 34963 ft 479 kts 34°
2026-05-05 01:24 38.48875 -76.89832 34959 ft 479 kts 33°
2026-05-05 01:25 38.54203 -76.84725 34954 ft 479 kts 33°
2026-05-05 01:25 38.59523 -76.79604 34954 ft 479 kts 33°
2026-05-05 01:26 38.64831 -76.74445 34955 ft 479 kts 33°
2026-05-05 01:26 38.70137 -76.69269 34947 ft 479 kts 33°
2026-05-05 01:27 38.75407 -76.64131 34956 ft 478 kts 33°
2026-05-05 01:27 38.80684 -76.58986 34954 ft 476 kts 33°
2026-05-05 01:28 38.85943 -76.53842 34952 ft 475 kts 33°
2026-05-05 01:28 38.91188 -76.48698 34955 ft 474 kts 33°
2026-05-05 01:29 38.96425 -76.43557 34963 ft 473 kts 33°
2026-05-05 01:29 39.01651 -76.38421 34960 ft 472 kts 33°
2026-05-05 01:30 39.06733 -76.33047 34958 ft 474 kts 38°
2026-05-05 01:30 39.11531 -76.27329 34400 ft 468 kts 40°
2026-05-05 01:31 39.13904 -76.24443 32947 ft 471 kts 39°
2026-05-05 01:31 39.16302 -76.21555 31454 ft 473 kts 39°
2026-05-05 01:31 39.18701 -76.18705 30530 ft 462 kts 39°
2026-05-05 01:31 39.21053 -76.15933 29478 ft 455 kts 39°
2026-05-05 01:32 39.23380 -76.13205 28450 ft 448 kts 39°
2026-05-05 01:32 39.25688 -76.10505 27392 ft 449 kts 39°
2026-05-05 01:32 39.28036 -76.07769 26329 ft 460 kts 39°
2026-05-05 01:32 39.30458 -76.04956 25993 ft 476 kts 39°
2026-05-05 01:33 39.32940 -76.02069 25749 ft 481 kts 39°
2026-05-05 01:33 39.35426 -75.99163 25429 ft 482 kts 39°
2026-05-05 01:33 39.37898 -75.96249 24998 ft 480 kts 39°
2026-05-05 01:33 39.40352 -75.93337 24583 ft 477 kts 39°
2026-05-05 01:34 39.42792 -75.90440 24169 ft 475 kts 39°
2026-05-05 01:34 39.45191 -75.87596 23761 ft 473 kts 38°
2026-05-05 01:34 39.47610 -75.84728 23356 ft 471 kts 38°
2026-05-05 01:34 39.50020 -75.81869 22940 ft 469 kts 38°
2026-05-05 01:35 39.52422 -75.79027 22525 ft 466 kts 38°
2026-05-05 01:35 39.54814 -75.76199 22142 ft 465 kts 39°
2026-05-05 01:35 39.57193 -75.73378 21731 ft 463 kts 39°
2026-05-05 01:35 39.59564 -75.70557 21330 ft 461 kts 39°
2026-05-05 01:36 39.61919 -75.67753 20933 ft 459 kts 39°
2026-05-05 01:36 39.64263 -75.64957 20531 ft 458 kts 39°
2026-05-05 01:36 39.66596 -75.62165 20120 ft 455 kts 39°
2026-05-05 01:36 39.68917 -75.59386 19718 ft 453 kts 39°
2026-05-05 01:37 39.71224 -75.56613 19236 ft 451 kts 39°
2026-05-05 01:37 39.73519 -75.53844 18783 ft 448 kts 39°
2026-05-05 01:37 39.75799 -75.51092 18325 ft 446 kts 39°
2026-05-05 01:37 39.78069 -75.48348 17959 ft 445 kts 39°
2026-05-05 01:38 39.80325 -75.45618 17498 ft 443 kts 39°
2026-05-05 01:38 39.82544 -75.42933 17065 ft 440 kts 39°
2026-05-05 01:38 39.84777 -75.40230 16619 ft 437 kts 39°
2026-05-05 01:38 39.86979 -75.37566 16265 ft 427 kts 39°
2026-05-05 01:39 39.89109 -75.34982 16128 ft 406 kts 39°
2026-05-05 01:39 39.91147 -75.32506 15384 ft 403 kts 39°
2026-05-05 01:39 39.93233 -75.29982 14294 ft 414 kts 39°
2026-05-05 01:39 39.95369 -75.27401 13455 ft 420 kts 39°
2026-05-05 01:40 39.97511 -75.24801 13167 ft 422 kts 40°
2026-05-05 01:40 39.99635 -75.22217 12532 ft 412 kts 40°
2026-05-05 01:40 40.01729 -75.19661 11582 ft 411 kts 40°
2026-05-05 01:40 40.03787 -75.17146 11228 ft 399 kts 40°
2026-05-05 01:41 40.05768 -75.14719 11050 ft 382 kts 40°
2026-05-05 01:41 40.07661 -75.12399 11018 ft 363 kts 40°
2026-05-05 01:41 40.09452 -75.10203 11029 ft 344 kts 40°
2026-05-05 01:41 40.11142 -75.08128 11027 ft 321 kts 40°
2026-05-05 01:42 40.12725 -75.06189 10992 ft 312 kts 39°
2026-05-05 01:42 40.14302 -75.04270 10696 ft 309 kts 39°
2026-05-05 01:42 40.15876 -75.02362 10349 ft 308 kts 39°
2026-05-05 01:42 40.17441 -75.00461 10019 ft 307 kts 40°
2026-05-05 01:43 40.19002 -74.98557 9683 ft 305 kts 40°
2026-05-05 01:43 40.20553 -74.96657 9326 ft 306 kts 40°
2026-05-05 01:43 40.22104 -74.94757 8996 ft 305 kts 40°
2026-05-05 01:43 40.23648 -74.92860 8661 ft 304 kts 41°
2026-05-05 01:44 40.25184 -74.90966 8336 ft 303 kts 41°
2026-05-05 01:44 40.26675 -74.89022 8043 ft 300 kts 44°
2026-05-05 01:44 40.28105 -74.87024 8006 ft 302 kts 45°
2026-05-05 01:44 40.29533 -74.84980 8013 ft 304 kts 46°
2026-05-05 01:45 40.30955 -74.82940 7883 ft 302 kts 46°
2026-05-05 01:45 40.32355 -74.80945 7555 ft 300 kts 45°
2026-05-05 01:45 40.33774 -74.78939 7213 ft 299 kts 45°
2026-05-05 01:45 40.35187 -74.76942 6871 ft 299 kts 45°
2026-05-05 01:46 40.36603 -74.74946 6539 ft 298 kts 45°
2026-05-05 01:46 40.38011 -74.72967 6227 ft 296 kts 45°
2026-05-05 01:46 40.39414 -74.70995 6011 ft 294 kts 46°
2026-05-05 01:46 40.40822 -74.69040 6010 ft 295 kts 42°
2026-05-05 01:47 40.42460 -74.67434 6013 ft 294 kts 26°
2026-05-05 01:47 40.44331 -74.66427 6011 ft 290 kts 11°
2026-05-05 01:47 40.46298 -74.65887 5999 ft 288 kts
2026-05-05 01:47 40.48267 -74.65370 6002 ft 289 kts
2026-05-05 01:48 40.50235 -74.64850 6005 ft 289 kts
2026-05-05 01:48 40.52204 -74.64326 5920 ft 288 kts
2026-05-05 01:48 40.54164 -74.63799 5586 ft 287 kts
2026-05-05 01:48 40.56117 -74.63269 5259 ft 286 kts
2026-05-05 01:49 40.58037 -74.62754 5007 ft 284 kts
2026-05-05 01:49 40.59979 -74.62237 4991 ft 286 kts
2026-05-05 01:49 40.61933 -74.61713 4995 ft 286 kts
2026-05-05 01:49 40.63890 -74.61188 4995 ft 287 kts
2026-05-05 01:50 40.65849 -74.60660 4991 ft 287 kts
2026-05-05 01:50 40.67809 -74.60132 4994 ft 288 kts
2026-05-05 01:50 40.69672 -74.59171 4995 ft 292 kts 33°
2026-05-05 01:50 40.71167 -74.57352 5003 ft 294 kts 46°
2026-05-05 01:51 40.72536 -74.55366 5003 ft 293 kts 47°
2026-05-05 01:51 40.73898 -74.53348 5003 ft 293 kts 47°
2026-05-05 01:51 40.75258 -74.51335 5006 ft 294 kts 48°
2026-05-05 01:51 40.76616 -74.49329 5011 ft 294 kts 47°
2026-05-05 01:52 40.77813 -74.47564 5010 ft 293 kts 47°
2026-05-05 01:52 40.79170 -74.45559 5012 ft 293 kts 47°
2026-05-05 01:52 40.80526 -74.43548 5011 ft 293 kts 47°
2026-05-05 01:52 40.81883 -74.41533 5009 ft 294 kts 47°
2026-05-05 01:53 40.83243 -74.39517 5012 ft 294 kts 47°
2026-05-05 01:53 40.84583 -74.37532 5012 ft 294 kts 47°
2026-05-05 01:53 40.85945 -74.35511 5012 ft 294 kts 47°
2026-05-05 01:53 40.87310 -74.33494 5010 ft 294 kts 47°
2026-05-05 01:54 40.88669 -74.31479 5003 ft 293 kts 47°
2026-05-05 01:54 40.90025 -74.29460 5001 ft 294 kts 47°
2026-05-05 01:54 40.91383 -74.27444 5003 ft 293 kts 47°
2026-05-05 01:54 40.92737 -74.25430 5003 ft 293 kts 47°
2026-05-05 01:55 40.94090 -74.23417 5000 ft 290 kts 48°
2026-05-05 01:55 40.95372 -74.21433 4997 ft 277 kts 56°
2026-05-05 01:55 40.96055 -74.19147 4914 ft 263 kts 86°
2026-05-05 01:55 40.95839 -74.16860 4792 ft 243 kts 117°
2026-05-05 01:56 40.95081 -74.14963 4464 ft 233 kts 126°
2026-05-05 01:56 40.94224 -74.13144 4125 ft 232 kts 127°
2026-05-05 01:56 40.93367 -74.11347 3999 ft 230 kts 128°
2026-05-05 01:56 40.92439 -74.09699 3990 ft 225 kts 143°
2026-05-05 01:57 40.91146 -74.08680 3737 ft 213 kts 169°
2026-05-05 01:57 40.89700 -74.08367 3428 ft 210 kts 177°
2026-05-05 01:57 40.88254 -74.08112 3095 ft 210 kts 176°
2026-05-05 01:57 40.86812 -74.07853 2818 ft 208 kts 176°
2026-05-05 01:58 40.85390 -74.07595 2574 ft 203 kts 175°
2026-05-05 01:58 40.84032 -74.07468 2517 ft 188 kts 188°
2026-05-05 01:58 40.82822 -74.07898 2554 ft 177 kts 204°
2026-05-05 01:58 40.82081 -74.08327 2522 ft 174 kts 206°
2026-05-05 01:59 40.80989 -74.09002 2384 ft 172 kts 207°
2026-05-05 01:59 40.79947 -74.09660 2208 ft 157 kts 206°
2026-05-05 01:59 40.79012 -74.10255 2014 ft 143 kts 206°
2026-05-05 01:59 40.78130 -74.10817 1829 ft 139 kts 206°
2026-05-05 02:00 40.77271 -74.11365 1649 ft 136 kts 206°
2026-05-05 02:00 40.76424 -74.11906 1469 ft 136 kts 205°
2026-05-05 02:00 40.75573 -74.12448 1289 ft 135 kts 205°
2026-05-05 02:00 40.74727 -74.12986 1106 ft 135 kts 205°
2026-05-05 02:01 40.73880 -74.13526 933 ft 135 kts 205°
2026-05-05 02:01 40.73045 -74.14057 755 ft 135 kts 205°
2026-05-05 02:01 40.72167 -74.14617 572 ft 135 kts 205°
2026-05-05 02:01 40.71319 -74.15157 393 ft 135 kts 206°
2026-05-05 02:02 40.70471 -74.15698 208 ft 136 kts 205°
2026-05-05 02:02 40.69618 -74.16237 44 ft 136 kts 205°
2026-05-05 02:02 40.68878 -74.16709 22 ft 95 kts 206°
2026-05-05 02:02 40.68442 -74.16993 22 ft 46 kts 207°
2026-05-05 02:03 40.68291 -74.17142 22 ft 21 kts 227°
2026-05-05 02:03 40.68200 -74.17302 24 ft 22 kts 236°
2026-05-05 02:03 40.68148 -74.17401 21 ft 6 kts 236°
2026-05-05 02:03 40.68144 -74.17417 21 ft 0 kts 257°
2026-05-05 02:05 40.68146 -74.17442 23 ft 7 kts 283°
2026-05-05 02:05 40.68175 -74.17529 23 ft 13 kts 295°
2026-05-05 02:06 40.68212 -74.17629 22 ft 12 kts 296°
2026-05-05 02:06 40.68194 -74.17691 24 ft 9 kts 212°
2026-05-05 02:06 40.68151 -74.17752 22 ft 11 kts 268°
2026-05-05 02:06 40.68183 -74.17852 24 ft 13 kts 296°
2026-05-05 02:07 40.68226 -74.17971 23 ft 15 kts 290°
2026-05-05 02:07 40.68238 -74.18123 22 ft 18 kts 270°
2026-05-05 02:07 40.68234 -74.18235 22 ft 11 kts 273°
2026-05-05 02:07 40.68240 -74.18335 22 ft 10 kts 275°
2026-05-05 02:08 40.68247 -74.18406 24 ft 3 kts 295°
2026-05-05 02:08 40.68261 -74.18412 25 ft 3 kts 346°
2026-05-05 02:08 40.68285 -74.18412 22 ft 2 kts
2026-05-05 02:08 40.68303 -74.18410 22 ft 2 kts
2026-05-05 02:09 40.68307 -74.18410 22 ft 0 kts